RH
63 58 64 66 72 80 65 62 52 58 55 38 38 37 34 31 33 36 49 61 67 74 70 65 58 42 38 35 30 31 36 39 41 44 40 42 47 48 48 43 50 50 48
52 54 56 61 54 63 68 67 64 65 64 57 38 38 37 34 31 35 44 51 62 71 66 66 64 48 41 40 36 33 36 38 42 45 40 44 45 45 49 48 50 50 44
51 56 54 59 65 59 57 62 64 68 62 61 49 39 40 41 34 32 36 40 38 44 57 62 69 50 48 42 39 37 37 39 45 46 42 39 45 48 47 44 49 49 50
45 55 66 77 82 76 62 61 68 70 67 66 64 50 47 49 43 38 35 35 36 39 43 46 52 51 53 50 45 40 38 42 43 41 45 40 41 46 53 50 56 52 47
39 45 48 59 76 77 72 66 65 66 72 73 69 66 63 57 55 47 44 41 36 36 40 43 41 46 49 55 56 53 47 45 47 49 46 49 46 50 63 72 58 56 69
24 27 33 34 52 69 74 64 62 60 70 68 66 69 75 73 70 63 57 48 45 41 42 43 46 45 46 50 58 66 65 62 55 56 61 56 54 53 63 88 96 91 98
21 21 20 24 38 69 67 73 70 64 56 56 58 69 75 88 82 76 69 66 55 49 46 45 48 47 47 52 56 59 71 75 74 72 65 61 58 52 56 65 85 87 82
27 22 23 25 27 50 84 74 77 73 62 58 64 74 79 80 86 85 84 79 70 64 56 53 49 51 56 54 55 63 63 66 70 71 72 72 66 58 58 62 56 56 67
37 30 26 38 43 26 51 80 92 75 72 70 61 84 77 82 95 89 90 91 92 86 81 75 60 57 54 62 68 65 63 68 66 66 66 65 61 60 59 60 57 61 60
41 37 33 32 48 65 45 30 60 94 80 86 82 68 74 68 80 88 92 100 98 98 91 85 86 80 66 58 63 71 77 77 71 74 68 63 56 52 55 79 88 63 64
40 39 37 35 32 35 100 100 78 58 77 90 91 93 93 81 80 88 79 84 97 100 100 100 100 95 87 79 76 72 71 76 85 89 84 76 66 63 55 72 74 78 90
44 40 35 34 35 36 52 91 100 83 73 92 100 88 73 84 83 86 91 71 80 90 97 94 96 97 97 96 90 82 73 76 77 82 93 100 98 87 80 76 88 100 100
48 44 42 31 31 34 35 57 100 100 100 100 100 100 100 96 83 59 57 58 74 73 75 97 100 100 100 98 95 95 92 83 79 79 76 82 100 100 98 99 100 100 93
57 53 50 43 36 28 31 38 79 98 100 100 100 100 100 98 90 66 43 38 39 46 66 82 91 92 98 99 100 100 100 96 95 94 99 87 80 78 98 100 100 97 92
71 54 46 49 38 31 31 28 52 82 100 100 100 100 100 100 100 95 88 67 48 50 45 40 41 47 66 90 98 100 100 100 100 97 95 93 86 86 83 88 100 100 99
79 58 44 47 47 29 30 30 42 64 87 97 100 100 100 100 100 100 92 91 80 73 76 59 42 35 34 37 51 61 83 90 79 94 100 100 100 94 87 83 89 85 82
69 61 41 46 44 37 28 28 31 59 67 83 89 100 100 100 100 100 100 99 93 82 64 74 59 61 61 58 59 59 57 49 39 37 43 86 100 100 100 100 94 94 96
30 50 45 41 48 43 30 29 31 46 40 73 80 83 100 100 100 100 100 91 90 98 63 81 98 80 77 100 98 78 76 68 61 63 60 44 41 50 94 100 100 97 98
17 16 21 36 42 43 34 25 34 28 31 57 60 78 80 70 69 78 85 78 75 77 67 51 52 58 72 70 70 71 86 100 94 82 82 75 52 39 37 36 56 91 97
16 15 14 12 19 25 31 18 22 25 26 42 36 38 41 68 54 51 63 68 66 58 65 58 46 64 66 60 60 74 95 100 96 86 72 65 65 87 70 77 98 98 100
12 11 12 11 11 13 18 20 14 16 26 27 36 29 25 39 57 39 44 49 52 43 51 56 39 52 60 55 57 61 61 66 87 83 76 70 54 57 77 100 100 100 100
4 7 7 7 8 9 10 13 13 11 14 20 23 24 25 26 29 39 38 46 40 40 37 38 37 40 54 54 46 54 52 50 58 62 57 66 58 45 65 100 100 100 100
3 3 4 5 5 6 8 11 12 11 11 12 18 20 28 22 23 32 34 47 43 48 40 48 51 42 46 51 48 46 44 45 44 60 60 60 67 56 52 77 100 100 100
2 2 2 3 3 3 5 7 10 9 11 11 13 14 16 24 22 27 31 30 52 49 54 51 49 47 46 41 44 41 51 51 73 77 73 72 62 63 63 67 100 100 100
2 2 2 2 2 3 4 4 6 8 10 12 11 13 13 14 16 27 37 38 41 61 54 51 48 48 44 47 42 58 76 82 87 92 79 76 69 65 73 77 85 100 93
2 2 1 1 2 2 3 4 5 6 9 12 13 10 12 15 19 25 37 34 35 50 63 46 41 55 62 55 54 80 90 68 84 82 74 80 67 68 64 77 79 100 100
Wind_Speed
45 44 41 41 40 36 32 31 29 25 24 27 27 26 23 23 21 21 22 22 22 22 21 20 19 18 14 13 14 14 14 14 14 15 13 12 12 11 10 9 9 10 9
51 50 47 46 44 40 38 34 33 31 27 26 28 27 25 26 25 24 24 23 23 23 24 23 22 20 19 17 17 16 16 15 14 14 15 12 9 10 10 9 8 9 9
52 49 50 47 45 42 40 38 37 35 33 30 28 30 29 28 29 28 27 27 24 24 23 24 23 21 22 20 19 19 20 18 16 16 15 12 10 9 9 8 9 12 12
51 51 47 46 45 44 42 41 40 38 38 34 32 31 30 31 32 31 31 31 28 26 25 24 22 20 21 22 22 21 21 21 20 19 16 14 12 12 11 8 11 10 14
47 49 50 48 49 49 47 45 42 41 39 37 36 35 34 34 35 35 34 34 32 30 28 27 26 24 22 23 24 24 25 24 24 23 21 18 16 16 13 12 12 13 15
47 47 48 50 50 51 49 48 47 45 43 42 42 41 40 39 36 37 38 37 36 33 32 32 30 29 27 26 25 27 27 27 29 27 25 21 19 18 15 13 16 18 20
47 47 47 48 49 50 51 49 49 48 48 47 46 44 42 42 40 40 40 39 39 37 35 35 34 33 33 31 30 29 28 29 30 30 31 29 25 20 19 20 22 22 25
43 47 44 45 46 48 50 51 51 50 53 51 50 48 47 46 46 44 43 42 42 41 40 39 38 37 36 36 35 33 32 31 32 33 33 31 28 25 22 24 24 25 25
38 39 41 40 43 46 48 50 51 54 53 53 52 52 51 51 51 50 49 48 46 45 44 44 44 42 40 39 38 37 36 36 35 34 33 32 31 29 28 28 27 29 28
41 40 39 39 39 37 39 44 46 44 50 55 56 56 55 55 55 54 53 53 51 51 50 48 47 46 46 43 41 40 40 40 39 38 36 34 32 33 33 33 32 32 32
47 43 43 42 41 40 34 34 38 44 38 40 47 57 62 62 60 60 58 56 57 56 55 52 48 47 48 47 46 44 44 43 41 42 41 40 38 36 35 37 39 38 35
53 50 46 47 44 45 46 39 36 36 40 40 37 38 45 52 61 66 65 62 62 60 58 56 54 53 54 54 55 53 51 47 48 47 46 45 44 43 42 42 43 42 41
58 57 54 52 50 47 51 49 41 38 37 37 36 38 36 38 45 53 60 64 66 64 62 62 63 62 61 59 58 57 55 54 53 53 54 54 51 51 48 48 49 48 45
65 63 60 56 54 54 54 54 51 44 42 40 38 36 43 42 42 47 50 55 62 65 66 65 66 66 66 64 62 61 61 60 59 57 56 55 56 55 51 50 49 50 48
72 71 68 62 59 60 57 59 60 52 49 45 42 43 45 45 44 43 42 44 48 50 55 62 65 67 65 66 66 66 66 67 65 64 61 61 60 59 58 55 51 50 48
79 77 75 71 68 61 61 60 64 61 57 49 48 48 47 46 46 45 43 41 44 43 43 47 52 57 61 63 66 67 69 69 68 68 68 67 66 65 63 61 59 56 54
84 84 82 79 76 69 65 67 63 67 60 55 52 51 50 49 48 48 46 45 44 43 42 40 40 41 44 48 52 52 55 58 63 66 70 71 70 69 67 65 63 61 57
91 88 87 84 82 78 72 69 66 68 64 61 56 53 55 52 51 52 50 51 48 47 43 43 43 43 44 45 47 50 54 54 55 58 62 68 72 69 69 70 68 67 65
94 92 91 89 87 86 81 75 73 70 68 69 63 60 62 57 55 57 56 56 56 54 53 46 50 49 45 45 45 46 47 47 49 50 49 52 59 66 67 67 69 73 70
96 94 92 89 89 89 87 80 77 74 71 72 73 70 66 65 62 60 62 61 60 60 58 55 50 48 49 47 44 43 45 46 49 49 49 50 53 55 57 53 54 55 47
100 97 95 92 92 91 90 85 81 78 82 77 80 77 72 68 71 66 66 66 64 62 65 63 56 54 51 50 50 51 48 47 50 52 53 54 57 55 51 49 51 47 51
94 98 95 97 94 92 92 91 87 83 83 82 81 75 73 74 72 73 71 68 67 66 62 62 56 59 56 58 54 53 54 54 54 55 53 57 54 54 54 55 55 52 57
87 91 94 97 96 94 94 93 91 87 82 79 78 76 79 75 73 73 73 70 69 66 66 64 64 64 64 60 60 58 56 59 59 56 55 57 57 54 53 56 64 61 61
83 85 86 90 90 86 87 88 89 88 85 83 83 82 80 77 74 75 73 72 72 71 68 67 66 67 68 66 66 64 62 61 58 58 54 58 60 60 57 57 63 69 69
81 79 81 84 85 84 82 83 88 89 88 87 85 84 81 78 73 74 76 74 74 73 71 69 68 67 64 65 61 63 64 61 61 63 60 61 61 64 64 61 62 68 70
72 71 72 76 77 78 80 80 82 86 87 88 88 83 80 80 78 78 78 77 74 73 72 72 71 72 71 69 67 67 69 66 64 68 69 70 66 65 68 68 66 70 72
Wind_Direction
252 255 253 256 257 257 260 261 260 266 270 263 260 259 262 258 258 258 256 265 272 276 279 283 286 290 289 289 290 292 305 317 327 338 336 326 333 342 351 2 9 5 359
251 255 258 259 252 254 256 259 260 264 266 268 263 260 264 263 260 257 257 261 267 272 274 280 284 286 286 286 291 291 297 306 317 326 329 326 325 344 346 348 355 1 355
249 250 256 257 250 252 255 257 258 261 261 260 260 259 262 263 264 263 259 263 267 268 269 272 279 283 285 285 285 289 294 301 306 313 321 316 317 325 335 343 341 342 342
247 247 246 248 251 250 253 254 257 260 263 259 256 257 256 262 263 264 264 265 264 265 266 266 265 273 283 286 287 289 292 297 301 304 310 309 303 319 328 330 331 334 334
248 247 246 243 245 249 253 254 255 257 258 258 258 258 255 254 259 261 266 269 266 264 265 265 263 266 271 280 285 287 290 294 297 299 303 303 301 305 307 312 317 317 323
244 244 244 245 242 244 250 255 256 257 256 259 260 259 257 255 255 260 263 265 265 263 263 262 263 264 268 270 274 282 287 291 294 295 297 297 295 293 291 300 306 309 312
243 242 247 242 242 244 246 248 249 254 256 258 257 256 255 254 254 255 260 264 262 263 262 264 263 263 265 267 268 269 275 282 287 291 295 295 292 285 282 285 295 301 311
245 244 245 245 240 244 248 248 249 251 252 255 256 253 254 253 254 256 255 259 262 261 263 265 266 263 263 268 269 269 270 271 279 284 287 290 290 282 275 282 289 299 306
245 246 245 244 247 241 247 251 251 251 252 251 250 250 253 254 254 255 257 258 259 260 261 265 264 266 264 265 269 272 274 274 273 275 279 283 284 280 280 283 288 295 300
243 246 247 245 242 242 242 248 251 252 251 251 250 248 250 255 256 256 257 258 259 259 260 262 263 266 267 263 264 269 271 274 275 275 276 275 278 282 281 280 282 288 292
242 242 243 245 244 238 235 241 247 248 250 251 252 251 250 251 251 254 256 258 260 260 261 262 261 263 267 267 266 266 267 268 269 274 274 273 274 274 281 278 280 284 286
244 244 242 239 240 240 238 238 240 241 245 249 256 256 251 251 251 251 253 256 258 259 260 260 261 263 267 267 269 269 271 269 270 270 270 271 272 274 274 276 278 280 290
248 247 245 239 239 236 238 239 239 237 239 247 257 257 255 256 254 251 251 253 254 257 260 261 263 265 268 269 269 270 270 270 272 273 275 277 276 274 273 277 279 283 289
249 250 248 245 237 237 236 234 238 238 238 241 244 254 260 260 258 255 254 255 254 255 257 260 262 265 266 267 267 269 271 272 273 273 272 275 278 280 279 280 282 282 283
249 249 250 247 240 234 237 234 235 235 238 236 240 245 251 256 259 262 260 257 257 259 259 259 259 260 261 261 263 265 268 269 271 271 271 272 274 275 278 279 280 282 282
246 248 249 249 247 241 236 236 234 236 236 240 238 243 244 251 257 258 260 259 258 261 264 263 260 260 261 261 263 264 266 269 269 269 269 270 271 273 275 276 279 280 282
243 247 249 250 249 247 241 238 235 233 238 236 241 244 243 243 247 252 255 258 261 264 268 270 266 266 265 265 267 269 270 269 269 269 268 266 269 271 273 275 276 276 280
244 243 246 248 249 250 248 245 239 233 240 238 238 241 246 248 250 252 255 258 257 259 265 269 269 275 274 274 275 277 274 275 271 271 270 268 267 268 270 272 274 277 279
246 246 245 245 246 247 247 245 247 238 243 239 238 237 243 249 251 253 253 257 260 259 258 266 266 266 265 269 278 280 280 279 280 275 275 274 271 269 270 272 272 273 277
247 248 247 247 245 245 246 244 244 246 246 243 245 241 245 245 249 252 253 255 259 260 261 264 267 259 262 266 275 276 274 279 282 283 284 279 280 271 273 277 278 277 275
250 250 250 247 245 245 245 245 243 243 247 242 240 244 244 245 246 251 252 254 256 260 258 260 264 267 267 264 271 271 275 277 276 277 280 284 280 275 277 272 275 267 261
246 247 246 246 245 243 244 244 243 241 242 244 246 248 248 250 247 251 254 255 257 258 260 261 264 266 268 269 272 272 276 278 272 275 277 278 281 281 273 269 268 266 263
245 244 244 243 242 241 241 242 243 243 243 244 248 249 250 249 250 252 253 255 258 260 260 263 265 265 267 268 270 273 276 278 281 277 280 278 277 279 277 267 263 263 262
245 245 243 243 244 242 240 241 243 244 244 245 247 247 248 249 250 253 255 255 258 260 262 264 265 266 268 269 273 276 276 277 280 283 282 281 278 277 278 274 265 265 266
247 245 244 243 242 241 239 237 241 242 242 245 246 247 249 251 252 255 258 258 260 261 263 264 266 267 268 268 272 275 276 275 276 278 283 283 279 277 278 278 271 270 269
249 246 242 241 240 239 237 236 239 242 243 243 245 247 247 250 251 253 256 257 258 260 262 263 264 266 268 271 274 274 275 276 275 279 281 283 280 276 276 277 274 267 264